Weather History for Anchorage Merrill, AK

Change the Weather History Date:

Monday, July 22, 2013

  Actual Average Record
Temperature  
Mean Temperature 70 °F -  
Max Temperature 82 °F 66 °F 82 °F (2013)
Min Temperature 57 °F 52 °F 48 °F (2000)
Cooling Degree Days 4    
Growing Degree Days 20 (Base 50)    
Moisture  
Dew Point 46 °F    
Average Humidity 45    
Maximum Humidity 62    
Minimum Humidity 30    
Precipitation  
Precipitation 0.00 in - - ()
Sea Level Pressure  
Sea Level Pressure 30.04 in    
Wind  
Wind Speed 6 mph (NNW)    
Max Wind Speed 14 mph    
Max Gust Speed 21 mph    
Visibility 10 miles    
Events      
Averages and records for this station are not official NWS values.
T = Trace of Precipitation, MM = Missing Value Source: NWS Daily Summary

Daily Weather History Graph

Daily Weather History Graph

Search for Another Location

Airport:

Trip Planner

Search our weather history database for the weather conditions in past years. The results will help you decide how hot, cold, wet, or windy it might be!

Date:

Astronomy

Jul. 22, 2013 Rise Set
Actual Time 5:07 AM AKDT 11:02 PM AKDT
Civil Twilight 3:49 AM AKDT 12:19 AM AKDT
Nautical Twilight Sun does not rise Sun does not rise
Astronomical Twilight Sun does not rise Sun does not rise
Moon 10:15 PM AKDT (7/22) 5:43 AM AKDT (7/22)
Length of Visible Light 20h 30m
Length of Day
17h 54m
Full, 100% of the Moon is Illuminated
Jul 22
Full
Jul 29
Last Quarter
Aug 6
New
Aug 14
First Quarter
Aug 20
Full

Hourly Weather History & Observations

Time (AKDT) Temp. Dew Point Humidity Pressure Visibility Wind Dir Wind Speed Gust Speed Precip Events Conditions
12:53 AM 66.9 °F 43.0 °F 42% 29.97 in 10.0 mi NNW 13.8 mph 20.7 mph N/A   Scattered Clouds
1:53 AM 64.9 °F 43.0 °F 45% 29.99 in 10.0 mi Variable 6.9 mph 17.3 mph N/A   Partly Cloudy
2:53 AM 61.0 °F 43.0 °F 52% 30.00 in 10.0 mi NE 3.5 mph - N/A   Partly Cloudy
3:53 AM 57.9 °F 44.1 °F 60% 30.01 in 10.0 mi Calm Calm - N/A   Scattered Clouds
4:53 AM 57.0 °F 44.1 °F 62% 30.02 in 10.0 mi Calm Calm - N/A   Scattered Clouds
5:53 AM 59.0 °F 44.1 °F 58% 30.03 in 10.0 mi NNE 3.5 mph - N/A   Partly Cloudy
6:53 AM 60.1 °F 43.0 °F 53% 30.04 in 10.0 mi NE 5.8 mph - N/A   Clear
7:53 AM 62.1 °F 43.0 °F 50% 30.05 in 10.0 mi NNE 8.1 mph - N/A   Clear
8:53 AM 64.9 °F 43.0 °F 45% 30.06 in 10.0 mi North 5.8 mph - N/A   Clear
9:53 AM 66.9 °F 44.1 °F 44% 30.06 in 10.0 mi Calm Calm - N/A   Clear
10:53 AM 70.0 °F 44.1 °F 39% 30.06 in 10.0 mi Calm Calm - N/A   Clear
11:53 AM 73.9 °F 46.9 °F 38% 30.06 in 10.0 mi Calm Calm - N/A   Clear
12:53 PM 75.0 °F 46.0 °F 36% 30.06 in 10.0 mi NW 5.8 mph - N/A   Clear
1:53 PM 77.0 °F 48.0 °F 36% 30.05 in 10.0 mi Calm Calm - N/A   Clear
2:53 PM 79.0 °F 48.0 °F 34% 30.05 in 10.0 mi Variable 3.5 mph - N/A   Clear
3:53 PM 82.0 °F 48.0 °F 30% 30.05 in 10.0 mi Calm Calm - N/A   Clear
4:53 PM 81.0 °F 50.0 °F 34% 30.04 in 10.0 mi West 6.9 mph - N/A   Clear
5:53 PM 79.0 °F 48.0 °F 34% 30.04 in 10.0 mi WSW 5.8 mph - N/A   Clear
6:53 PM 75.9 °F 50.0 °F 40% 30.04 in 10.0 mi WNW 8.1 mph - N/A   Clear
7:53 PM 75.0 °F 48.0 °F 38% 30.05 in 10.0 mi West 5.8 mph - N/A   Partly Cloudy
8:53 PM 71.1 °F 50.0 °F 47% 30.05 in 10.0 mi NNW 4.6 mph - N/A   Clear
9:53 PM 66.9 °F 51.1 °F 57% 30.06 in 10.0 mi NNW 3.5 mph - N/A   Clear
10:53 PM 68.0 °F 48.0 °F 49% 30.07 in 10.0 mi SE 3.5 mph - N/A   Clear
11:53 PM 64.9 °F 46.9 °F 52% 30.09 in 10.0 mi South 3.5 mph - N/A   Scattered Clouds